FW2417 Weather Reports


Display with metric or nautical units.
time (UTC)temp
F
wind
direction
speed
MPH
gust
MPH
rain 1hr
in
rain 24hr
in
rain mn
in
humidity
%
barometer
mb
20260901010010 79 200 0.0 6.0 0.00 0.00 0.00 45 1017.6
20260901004504 79 208 1.0 6.0 0.00 0.00 0.00 43 1017.7
20260901003112 79 173 2.0 7.0 0.00 0.00 0.00 38 1017.7
20260901001612 79 242 3.0 10.0 0.00 0.00 0.00 35 1017.7
20260901000106 78 221 2.0 8.0 0.00 0.00 0.00 36 1017.8
20260831234608 78 218 3.0 9.0 0.00 0.00 0.00 36 1017.7
20260831233101 79 229 3.0 9.0 0.00 0.00 0.00 35 1017.6
20260831231622 79 218 2.0 5.0 0.00 0.00 0.00 36 1017.5
20260831230100 79 213 1.0 5.0 0.00 0.00 0.00 36 1017.5
20260831224624 79 207 2.0 7.0 0.00 0.00 0.00 37 1017.6
20260831223048 79 245 1.0 5.0 0.00 0.00 0.00 38 1017.7
20260831221552 80 205 1.0 7.0 0.00 0.00 0.00 38 1017.7
20260831220048 80 218 2.0 7.0 0.00 0.00 0.00 38 1017.7
20260831214540 81 246 2.0 7.0 0.00 0.00 0.00 38 1017.7
20260831213117 82 228 3.0 7.0 0.00 0.00 0.00 38 1017.8
20260831211617 83 228 3.0 7.0 0.00 0.00 0.00 38 1017.8
20260831210109 83 246 4.0 8.0 0.00 0.00 0.00 37 1017.6
20260831204610 84 228 3.0 7.0 0.00 0.00 0.00 37 1017.6
20260831203107 85 232 3.0 9.0 0.00 0.00 0.00 37 1017.4
20260831201600 85 246 2.0 12.0 0.00 0.00 0.00 37 1017.1
20260831200054 86 242 2.0 8.0 0.00 0.00 0.00 37 1016.8
20260831194558 87 228 1.0 7.0 0.00 0.00 0.00 37 1016.4
20260831193053 88 217 2.0 6.0 0.00 0.00 0.00 36 1016.2
20260831191550 89 232 1.0 5.0 0.00 0.00 0.00 34 1016.0
20260831190046 90 262 0.0 5.0 0.00 0.00 0.00 34 1015.8
20260831184505 91 267 1.0 7.0 0.00 0.00 0.00 34 1015.6
20260831183002 92 256 2.0 9.0 0.00 0.00 0.00 34 1015.5
20260831181503 94 246 0.0 8.0 0.00 0.00 0.00 32 1015.4
20260831180113 96 208 1.0 6.0 0.00 0.00 0.00 27 1015.4
20260831174600 97 217 0.0 5.0 0.00 0.00 0.00 24 1015.2
20260831173056 98 231 1.0 6.0 0.00 0.00 0.00 25 1015.2
20260831171554 98 253 2.0 7.0 0.00 0.00 0.00 24 1015.2
20260831170050 99 148 0.0 5.0 0.00 0.00 0.00 23 1015.3
20260831164548 99 224 0.0 3.0 0.00 0.00 0.00 23 1015.3
20260831163046 99 289 1.0 7.0 0.00 0.00 0.00 23 1015.2
20260831161549 100 228 0.0 3.0 0.00 0.00 0.00 22 1015.3
20260831160046 100 250 1.0 6.0 0.00 0.00 0.00 22 1015.4
20260831154614 100 226 1.0 5.0 0.00 0.00 0.00 22 1015.4
20260831153044 100 283 1.0 5.0 0.00 0.00 0.00 22 1015.4
20260831151509 100 269 1.0 6.0 0.00 0.00 0.00 21 1015.7
20260831150007 100 243 1.0 5.0 0.00 0.00 0.00 20 1015.7
20260831144621 100 349 0.0 4.0 0.00 0.00 0.00 20 1015.7
20260831143125 99 218 0.0 5.0 0.00 0.00 0.00 21 1015.9
20260831141609 99 56 2.0 6.0 0.00 0.00 0.00 21 1016.1
20260831140054 99 236 1.0 6.0 0.00 0.00 0.00 23 1016.2
20260831134559 99 249 0.0 4.0 0.00 0.00 0.00 22 1016.4
20260831133054 98 236 0.0 7.0 0.00 0.00 0.00 22 1016.5
20260831131607 97 211 0.0 5.0 0.00 0.00 0.00 24 1016.6
20260831130104 97 245 0.0 3.0 0.00 0.00 0.00 24 1016.6
20260831124549 96 222 0.0 3.0 0.00 0.00 0.00 26 1016.9
20260831123038 96 73 0.0 2.0 0.00 0.00 0.00 28 1017.0
20260831121545 96 87 0.0 2.0 0.00 0.00 0.00 28 1017.2
20260831120036 95 219 0.0 1.0 0.00 0.00 0.00 29 1017.4
20260831114504 93 225 0.0 1.0 0.00 0.00 0.00 31 1017.5
20260831113118 93 120 1.0 2.0 0.00 0.00 0.00 31 1017.7
20260831111618 92 198 0.0 2.0 0.00 0.00 0.00 32 1017.9
20260831110110 90 82 0.0 3.0 0.00 0.00 0.00 34 1017.9
20260831104607 88 136 0.0 3.0 0.00 0.00 0.00 35 1018.1
20260831103155 87 26 0.0 4.0 0.00 0.00 0.00 35 1018.2
20260831101609 86 340 2.0 6.0 0.00 0.00 0.00 36 1018.3
20260831100109 86 94 0.0 3.0 0.00 0.00 0.00 37 1018.4
20260831094624 85 98 0.0 5.0 0.00 0.00 0.00 37 1018.3
20260831093052 84 92 0.0 4.0 0.00 0.00 0.00 39 1018.3
20260831091542 82 100 0.0 5.0 0.00 0.00 0.00 40 1018.4
20260831090038 82 68 0.0 4.0 0.00 0.00 0.00 41 1018.5
20260831084545 81 94 1.0 5.0 0.00 0.00 0.00 41 1018.4
20260831083035 80 72 1.0 3.0 0.00 0.00 0.00 43 1018.3
20260831081508 79 65 0.0 2.0 0.00 0.00 0.00 45 1018.3
20260831080118 78 77 0.0 2.0 0.00 0.00 0.00 46 1018.2
20260831074616 80 123 0.0 0.0 0.00 0.00 0.00 44 1018.3
20260831073108 79 123 0.0 0.0 0.00 0.00 0.00 45 1018.3
20260831071615 77 123 0.0 0.0 0.00 0.00 0.00 46 1018.1
20260831070052 75 123 0.0 1.0 0.00 0.00 0.00 47 1018.0
20260831064553 74 136 0.0 1.0 0.00 0.00 0.00 50 1017.9
20260831063048 72 148 0.0 1.0 0.00 0.00 0.00 52 1017.7
20260831061548 72 130 0.0 1.0 0.00 0.00 0.00 52 1017.5
20260831060049 72 136 0.0 1.0 0.00 0.00 0.00 53 1017.3
20260831054546 72 123 0.0 0.0 0.00 0.00 0.00 53 1017.3
20260831053048 72 118 0.0 0.0 0.00 0.00 0.00 55 1017.3
20260831051539 72 118 0.0 0.0 0.00 0.00 0.00 55 1017.4
20260831050123 72 119 0.0 0.0 0.00 0.00 0.00 56 1017.3
20260831044502 72 134 0.0 1.0 0.00 0.00 0.00 57 1017.3
20260831043110 72 149 0.0 1.0 0.00 0.00 0.00 56 1017.3
20260831041614 72 136 0.0 1.0 0.00 0.00 0.00 55 1017.3
20260831040110 72 122 0.0 0.0 0.00 0.00 0.00 55 1017.3
20260831034606 73 124 0.0 1.0 0.00 0.00 0.00 54 1017.3
20260831033100 73 139 0.0 1.0 0.00 0.00 0.00 54 1017.4
20260831031554 73 173 0.0 1.0 0.00 0.00 0.00 53 1017.5
20260831030007 74 201 0.0 1.0 0.00 0.00 0.00 52 1017.5
20260831024504 74 218 0.0 0.0 0.00 0.00 0.00 53 1017.6
20260831023115 73 218 0.0 0.0 0.00 0.00 0.00 54 1017.6
20260831021618 74 218 0.0 0.0 0.00 0.00 0.00 53 1017.6
20260831020115 75 218 0.0 2.0 0.00 0.00 0.00 52 1017.6
20260831014608 75 211 0.0 2.0 0.00 0.00 0.00 52 1017.5
20260831013104 76 233 0.0 3.0 0.00 0.00 0.00 52 1017.5
20260831011609 75 280 0.0 2.0 0.00 0.00 0.00 52 1017.6